Location: Adrasan
(36.3319°N, 30.4314°E)
Time: 12:00:36
(UTC+00:00)

Cosmos 1190 Rocket - Pass Details

Date: 09 December 2023
Orbit: 756 x 777 km, 74.1° (Epoch: 20 February)

Event Time Altitude Azimuth Distance (km) Brightness Sun altitude
Rises 15:12:43 0° 350° (N) 3,262 7.1 -6.2°
Reaches altitude 10° 15:15:17 10° 359° (N) 2,329 6.3 -6.7°
Maximum altitude 15:20:12 38° 67° (ENE) 1,169 4.5 -7.6°
Drops below altitude 10° 15:25:03 10° 135° (SE) 2,306 6.3 -8.5°
Sets 15:27:34 0° 143° (SE) 3,225 7.1 -8.9°
